Palacios, TX

10:48 PM CST on February 12, 2016 (GMT -0600)
Palacios Municipal

Weather History for KPSX - November, 2014

Change the Weather History Date:

Monday, November 17, 2014

  Actual Average Record
Temperature  
Mean Temperature 43 °F -  
Max Temperature 51 °F - - ()
Min Temperature 34 °F - - ()
Degree Days  
Heating Degree Days 22    
Moisture  
Dew Point 30 °F    
Average Humidity 68    
Maximum Humidity 85    
Minimum Humidity 32    
Precipitation  
Precipitation 0.00 in - - ()
Sea Level Pressure  
Sea Level Pressure 30.31 in    
Wind  
Wind Speed 22 mph (NNW)    
Max Wind Speed 28 mph    
Max Gust Speed 38 mph    
Visibility 10 miles    
Events      
T = Trace of Precipitation, MM = Missing Value Source: NWS Daily Summary

Daily Weather History Graph

Daily Weather History Graph

Search for Another Location

Airport or City:

Trip Planner

Search our weather history database for the weather conditions in past years. The results will help you decide how hot, cold, wet, or windy it might be!

Date:

Astronomy

Nov. 17, 2014 Rise Set
Actual Time 6:49 AM CST 5:30 PM CST
Civil Twilight 6:24 AM CST 5:55 PM CST
Nautical Twilight 5:55 AM CST 6:23 PM CST
Astronomical Twilight 5:27 AM CST 6:52 PM CST
Moon 2:15 AM CST (11/17) 2:33 PM CST (11/17)
Length of Visible Light 11h 30m
Length of Day
10h 40m
Waning Crescent, 22% of the Moon is Illuminated
Nov 17
Waning Crescent
Nov 22
New
Nov 29
First Quarter
Dec 6
Full
Dec 14
Last Quarter

Hourly Weather History & Observations

Time (CST) Temp. Windchill Dew Point Humidity Pressure Visibility Wind Dir Wind Speed Gust Speed Precip Events Conditions
12:10 AM 44.1 °F 34.8 °F 39.0 °F 82% 30.11 in 10.0 mi NNW 25.3 mph 38.0 mph N/A   Overcast
12:41 AM 42.1 °F 31.9 °F 37.9 °F 85% 30.12 in 10.0 mi NNW 26.5 mph 36.8 mph N/A   Overcast
12:53 AM 42.1 °F 32.3 °F 37.9 °F 85% 30.12 in 10.0 mi NNW 24.2 mph 38.0 mph N/A   Overcast
1:16 AM 42.1 °F 31.7 °F 37.0 °F 82% 30.14 in 10.0 mi NNW 27.6 mph 33.4 mph N/A   Overcast
1:53 AM 41.0 °F 30.2 °F 36.0 °F 82% 30.15 in 10.0 mi NNW 27.6 mph 36.8 mph N/A   Overcast
2:53 AM 39.9 °F 29.7 °F 34.0 °F 79% 30.17 in 10.0 mi NNW 23.0 mph 28.8 mph N/A   Overcast
3:53 AM 37.9 °F 26.6 °F 32.0 °F 79% 30.21 in 10.0 mi NNW 25.3 mph 31.1 mph N/A   Scattered Clouds
4:53 AM 37.0 °F 27.0 °F 32.0 °F 82% 30.24 in 10.0 mi NNW 18.4 mph 29.9 mph N/A   Clear
5:53 AM 36.0 °F 26.0 °F 30.9 °F 82% 30.28 in 10.0 mi NNW 17.3 mph 27.6 mph N/A   Clear
6:25 AM 36.0 °F 24.4 °F 30.0 °F 79% 30.30 in 10.0 mi NNW 23.0 mph 29.9 mph N/A   Mostly Cloudy
6:41 AM 35.1 °F 24.1 °F 28.9 °F 78% 30.31 in 10.0 mi North 19.6 mph 28.8 mph N/A   Scattered Clouds
6:53 AM 35.1 °F 24.1 °F 30.0 °F 82% 30.32 in 10.0 mi North 19.6 mph 28.8 mph N/A   Mostly Cloudy
7:50 AM 35.6 °F 24.0 °F 28.4 °F 75% 30.35 in 10.0 mi NNW 23.0 mph 29.9 mph N/A   Scattered Clouds
7:53 AM 36.0 °F 24.2 °F 28.0 °F 73% 30.35 in 10.0 mi North 24.2 mph 31.1 mph N/A   Partly Cloudy
8:53 AM 37.9 °F 27.1 °F 28.0 °F 68% 30.37 in 10.0 mi North 23.0 mph 33.4 mph N/A   Clear
9:53 AM 41.0 °F 30.7 °F 27.0 °F 57% 30.37 in 10.0 mi North 25.3 mph 31.1 mph N/A   Clear
10:53 AM 43.0 °F 33.3 °F 25.0 °F 49% 30.36 in 10.0 mi NNW 25.3 mph 32.2 mph N/A   Clear
11:53 AM 45.0 °F 36.4 °F 25.0 °F 46% 30.35 in 10.0 mi North 23.0 mph - N/A   Clear
12:53 PM 48.9 °F - 26.1 °F 41% 30.34 in 10.0 mi NNW 18.4 mph - N/A   Clear
1:53 PM 50.0 °F - 25.0 °F 38% 30.33 in 10.0 mi North 24.2 mph 29.9 mph N/A   Clear
2:53 PM 51.1 °F - 21.9 °F 32% 30.34 in 10.0 mi North 21.9 mph 28.8 mph N/A   Clear
3:53 PM 50.0 °F - 23.0 °F 35% 30.34 in 10.0 mi NNW 19.6 mph 27.6 mph N/A   Clear
4:53 PM 48.9 °F - 24.1 °F 38% 30.35 in 10.0 mi North 15.0 mph - N/A   Clear
5:53 PM 43.0 °F 38.2 °F 28.0 °F 56% 30.37 in 10.0 mi NNW 8.1 mph - N/A   Clear
6:53 PM 39.0 °F 32.8 °F 30.0 °F 70% 30.38 in 10.0 mi NNW 9.2 mph - N/A   Clear
7:53 PM 37.9 °F 31.5 °F 30.0 °F 73% 30.40 in 10.0 mi North 9.2 mph - N/A   Clear
8:53 PM 37.0 °F 31.0 °F 28.9 °F 73% 30.42 in 10.0 mi North 8.1 mph - N/A   Clear
9:53 PM 36.0 °F 30.3 °F 28.9 °F 76% 30.44 in 10.0 mi North 6.9 mph - N/A   Clear
10:53 PM 37.0 °F 30.4 °F 28.0 °F 70% 30.46 in 10.0 mi North 9.2 mph - N/A   Clear
11:53 PM 34.0 °F 27.2 °F 28.0 °F 79% 30.46 in 10.0 mi North 8.1 mph - N/A   Clear